Regional Weather Roundup
Issued by NWS Cleveland, OH

Home | Current Version | Previous Version | Graphics & Text | Print | Product List | Glossary On
Versions: 1 2 3 4 5 6 7 8 9 10 11 12 13 14 15 16 17 18 19 20 21 22 23 24 25 26 27 28 29 30 31 32 33 34 35 36 37 38 39 40 41 42 43 44 45 46 47 48 49 50
000
ASUS41 KCLE 301010
RWRCLE
OHIO REGIONAL WEATHER ROUNDUP
NATIONAL WEATHER SERVICE CLEVELAND, OH
600 AM EDT WED JUL 30 2014

NOTE: "FAIR" INDICATES FEW OR NO CLOUDS BELOW 12,000 FEET WITH NO
SIGNIFICANT WEATHER AND/OR OBSTRUCTIONS TO VISIBILITY.

OHZ001>008-015>018-024>027-034-035-043-044-301100-
   NORTHWEST OHIO

CITY           SKY/WX    TMP DP  RH WIND       PRES   REMARKS
DEFIANCE       CLOUDY    61  57  87 CALM      29.99F
FINDLAY        CLOUDY    57  54  89 SW3       30.00S
TOLEDO EXPRESS CLOUDY    57  55  93 SW3       29.98S
TOLEDO EXEC    MOCLDY    58  55  90 SW5       30.00R
LIMA           PTCLDY    57  55  93 S6        30.02R FOG
$$

OHZ009>014-019>023-028>033-038-089-301100-
   NORTHEAST OHIO

CITY           SKY/WX    TMP DP  RH WIND       PRES   REMARKS
CLE-HOPKINS    MOCLDY    59  54  83 SW8       30.01R
CLE-LAKEFRONT  PTCLDY    61  55  81 S9        29.98R
CUY CO. ARPT   NOT AVBL
LORAIN-ELYRIA  PTCLDY    60  56  86 SW5       30.00R
ASHTABULA      MOCLDY    57  52  83 S7        29.99S
AKRON-CANTON   PTCLDY    56  50  80 SW7       30.01S
WOOSTER        PTCLDY    54  51  90 SW5       30.02R
MANSFIELD      PTCLDY    57  56  96 SW6       30.02R
YOUNGSTOWN     CLOUDY    59  50  72 SW7       30.01S
$$

OHZ042-051>053-060>062-070>072-077>081-301100-
  SOUTHWEST OHIO

CITY           SKY/WX    TMP DP  RH WIND       PRES   REMARKS
CINC-COVINGTON PTCLDY    59  56  89 S3        30.06R
CINC-LUNKEN    CLEAR     57  56  96 CALM      30.06S
HAMILTON       CLEAR     55  54  96 CALM      30.06R
DAYTON         CLEAR     58  55  90 SW3       30.05R
WRIGHT-PAT AFB CLEAR     57  56  94 SE3       30.04R
DAYTON GENERAL CLEAR     57  55  93 S5        30.04R
WILMINGTON     CLEAR     54  52  93 SW5       30.05R
$$

OHZ036-037-039>041-045>050-054>059-063>069-073>076-082>088-301100-
  CENTRAL AND SOUTHEAST OHIO

CITY           SKY/WX    TMP DP  RH WIND       PRES   REMARKS
COLUMBUS       CLEAR     59  53  80 S5        30.03S
OSU AIRPORT    CLEAR     58  54  86 SW5       30.03S
BOLTON FIELD   CLEAR     52  52 100 CALM      30.04S FOG
RICKENBACK AFB CLEAR     56  50  80 CALM      30.03S
NEWARK         CLEAR     56  52  86 S3        30.03S
MARION         CLEAR     56  54  93 CALM      30.02R
LANCASTER      CLEAR     57  52  83 CALM      30.04S
ZANESVILLE     CLOUDY    58  52  80 SW3       30.04S
NEW PHILLY     CLEAR     53  52  96 SE3       30.04R
$$



USA.gov is the U.S. government's official web portal to all federal, state and local government web resources and services.